423  
ASUS42 KTAE 260416  
RWRTAE  
RWRTAE  
NORTH FLORIDA/SOUTH ALABAMA/SOUTHWEST GEORGIA WEATHER ROUNDUP  
NATIONAL WEATHER SERVICE TALLAHASSEE FLORIDA  
1200 AM EDT TUE OCT 26 2021  
 
NOTE: "FAIR" INDICATES FEW OR NO CLOUDS BELOW 12,000 FEET WITH NO  
SIGNIFICANT WEATHER AND/OR S TO VISIBILITY
.  
 
!FLZ017-115-028-034-025-260500   
..NORTH FLORIDA
 
 
 
CITY SKY/WX TMP DP RH WIND PRES REMARKS
 
TALL INTL ARPT CLEAR 73 71 93 W6 29.90R  
FSU LOVE BLDG N/A 73 70 88 W7 N/A  
APALACHICOLA CLEAR 74 74 100 W5 29.92R  
PERRY NOT AVBL  
CROSS CITY CLEAR 74 73 98 W6 29.90S  
JACKSONVILLE MOCLDY 74 72 93 W7 29.84F  

 
 
!FLZ112-006-005-002-011-260500   
..FLORIDA PANHANDLE
 
 
 
CITY SKY/WX TMP DP RH WIND PRES REMARKS
 
MARIANNA CLEAR 70 67 90 W6 29.90S  
BONIFAY FAIR 68 66 93 CALM 29.93R  
PANAMA CITY NW FAIR 70 70 100 CALM 29.92R  
TYNDALL AFB CLEAR 76 73 90 NW9 29.92R  
TYND DRONE APT FAIR 78 75 93 W8 29.90  
DE FUNIAK SPR NOT AVBL  
EGLIN AFB CLEAR 70 66 89 NW3 29.92R  
DESTIN CLEAR 76 69 79 W3 29.93R  
HURLBURT CLEAR 73 68 82 CALM 29.93R  
CRESTVIEW NOT AVBL  
PENSACOLA CLEAR 74 70 87 NW6 29.93S  

 
 
!ALZ063-066-260500   
..SOUTH ALABAMA
 
 
 
CITY SKY/WX TMP DP RH WIND PRES REMARKS
 
DOTHAN CLEAR 71 67 87 W8 29.94S  
OZARK CAIRNS CLEAR 67 67 99 SW5 29.91R  
FT RUCKER HELI CLEAR 69 66 90 CALM 29.91S  
RUCKER HELI 3 FAIR 71 67 87 NW6 29.90S  
RUCKER HELI 2 FAIR 69 68 97 W3 29.89S  
FLORALA APT NOT AVBL  
ANDALUSIA CLEAR 73 66 78 NW9 29.93R  
TROY CLEAR 70 64 81 NW5 29.93R  
EUFALA FAIR 65 63 93 W3 29.90 FOG  
MOBILE CLEAR 70 67 90 NW5 29.97R  

 
 
!GAZ120>161-260500   
..SOUTHWEST AND SOUTH CENTRAL GEORGIA
 
 
 
CITY SKY/WX TMP DP RH WIND PRES REMARKS
 
THOMASVILLE FAIR 72 66 83 NW5 29.90R  
BAINBRIDGE NOT AVBL  
MOODY AFB CLEAR 71 68 90 SW6 29.86S  
VALDOSTA CLEAR 68 66 93 CALM 29.88S  
MOULTRIE PTCLDY 70 68 94 W3 29.90S  
BLAKELY PTCLDY 68 64 88 CALM 29.91R  
ALBANY CLEAR 71 66 84 NW3 29.90S  
TIFTON FAIR 72 68 88 NW6 29.88R  
FITZGERALD FAIR 70 67 92 CALM 29.87F  
CORDELE FAIR 68 64 88 CALM 29.88F  
AMERICUS N/A 68 64 88 CALM 29.89F  
HOMERVILLE FAIR 70 68 95 SW3 29.86F  

 
 
!GMZ750-755-770-775-260500   
..COASTAL AND BUOY OBS
 
 
 
STATION/POSITION TIME TEMP WIND PRES VSBY WAVE
 
AIR SEA DIR/SP/G HT/PER  
(UTC) (F) (DEG/KT/KT) (MB) (MI) (FT/S)  
KEATON BEACH NOT AVBL  
CEDAR KEY 0400 78 270/ 8/ 11 1012.8F  
C TOWER 0400 78 280/ 18/ 19 1013.5S  
APALACHICOLA BUO 0350 81 290/ 14/ 17 1012.8S 3/ 6  
PANAMA CITY BUOY 0350 80 82 280/ 12/ 14 1014.7R 3/ 6  
MOBILE BUOY 0350 79 81 260/ 6/ 8 1014.9R 2/ 6  
ORANGE BCH AL BU 0350 79 79 290/ 10/ 12 N/A 2/ 6  

 
 
 
CLICK HERE TO GO TO PREVIOUS BULLETINS.

The Nexlab FL Page
The Nexlab GA Page
The Nexlab AL Page Main Text Page